Flag for Norway Weather past 2 weeks in Lierbyen, Norway

Now
39 °F

Partly sunny.


Feels Like: 27 °F
Forecast: 27 / 43 °F
Wind: 30 mph from Northwest

Location: Oslo / Fornebu

Current Time: Apr 1, 2015 at 3:39:28 PM

Latest Report: Apr 1, 2015 at 2:50 PM


Visibility: N/A

Pressure: 29.56 "Hg

Humidity: 45%

Dew point: 19 °F

Location of LierbyenLocation

Historic Weather in Lierbyen — Graph

°F

Lierbyen temperature yesterday

Maximum temperature yesterday: 43 °F (at 5:20 PM)
Minimum temperature yesterday: 36 °F (at 12:20 PM)
Average temperature yesterday: 40 °F

Past Weeks' High & Low Weather Summary

 TemperatureHumidityPressure
High50 °F (Mar 17, 1:20 PM)100% (Mar 19, 6:20 AM)30.51 "Hg (Mar 19, 6:20 AM)
Low36 °F (Mar 30, 9:20 PM)39% (Mar 21, 9:50 AM)28.85 "Hg (Mar 28, 8:20 PM)
Average43 °F78%29.72 "Hg
* Reported Mar 17 1:20 PM — Apr 1 2:20 PM, Lierbyen, Weather by CustomWeather, © 2015

Note: Actual official high and low records may vary slightly from our data, if they occured in-between our weather recording intervals... More about our weather records

Advertising

Lierbyen weather history for previous 24 hours

 ConditionsComfort  
Time TempWeatherWind HumidityBarometerVisibility
2:20 PM
Wed, Apr 1
37 °FPartly sunny.31 mph45%29.53 "HgN/A
1:50 PM37 °FSprinkles. Partly sunny.30 mph48%29.53 "HgN/A
1:20 PM37 °FPartly sunny.35 mph56%29.53 "HgN/A
12:50 PM37 °FPartly sunny.31 mph48%29.53 "HgN/A
12:20 PM36 °FSprinkles. Partly sunny.31 mph60%29.50 "HgN/A
11:50 AM37 °FPartly sunny.31 mph45%29.50 "HgN/A
11:20 AM37 °FPartly sunny.32 mph45%29.50 "HgN/A
10:50 AM36 °FSprinkles. Partly sunny.36 mph52%29.47 "HgN/A
10:20 AM36 °FPartly sunny.35 mph60%29.47 "HgN/A
9:50 AM36 °FPartly sunny.36 mph60%29.47 "HgN/A
9:20 AM36 °FSprinkles. Partly sunny.36 mph52%29.45 "HgN/A
8:50 AM36 °FBroken clouds.38 mph48%29.45 "HgN/A
8:20 AM36 °FBroken clouds.37 mph56%29.45 "HgN/A
7:50 AM36 °FPartly sunny.43 mph52%29.42 "HgN/A
7:20 AM36 °FSprinkles. Passing clouds.45 mph60%29.42 "HgN/A
6:50 AM36 °FPassing clouds.47 mph70%29.39 "HgN/A
6:20 AM37 °FPassing clouds.46 mph65%29.39 "HgN/A
5:50 AM36 °FLight rain. Passing clouds.46 mph81%29.36 "HgN/A
5:20 AM36 °FLight rain. Passing clouds.51 mph81%29.33 "HgN/A
4:50 AM36 °FSprinkles. Passing clouds.52 mph75%29.33 "HgN/A
4:20 AM37 °FPassing clouds.48 mph75%29.33 "HgN/A
3:50 AM36 °FSprinkles. Passing clouds.48 mph81%29.30 "HgN/A
3:20 AM37 °FSprinkles. Passing clouds.51 mph75%29.27 "HgN/A
2:50 AM37 °FPassing clouds.48 mph87%29.27 "HgN/A
2:20 AM37 °FSprinkles. Passing clouds.50 mph87%29.24 "HgN/A
1:50 AM36 °FLight rain. Passing clouds.36 mph93%29.24 "HgN/A
1:20 AM37 °FPassing clouds.39 mph87%29.21 "HgN/A
12:50 AM37 °FPassing clouds.38 mph75%29.18 "HgN/A
12:20 AM39 °FSprinkles. Partly cloudy.36 mph87%29.15 "HgN/A
11:50 PM
Tue, Mar 31
39 °FSprinkles. Passing clouds.31 mph87%29.15 "HgN/A
11:20 PM39 °FPassing clouds.28 mph87%29.12 "HgN/A
10:50 PM41 °FPassing clouds.28 mph70%29.12 "HgN/A
10:20 PM39 °FPassing clouds.35 mph65%29.12 "HgN/A
9:50 PM39 °FPassing clouds.35 mph75%29.09 "HgN/A
9:20 PM41 °FPassing clouds.35 mph61%29.09 "HgN/A
8:50 PM41 °FPartly sunny.31 mph70%29.06 "HgN/A
8:20 PM41 °FPartly sunny.37 mph66%29.03 "HgN/A
7:50 PM39 °FSprinkles. Scattered clouds.39 mph81%29.03 "HgN/A
7:20 PM41 °FScattered clouds.36 mph70%29.00 "HgN/A
6:50 PM43 °FScattered clouds.35 mph66%28.97 "HgN/A
6:20 PM41 °FSprinkles. Broken clouds.31 mph70%28.97 "HgN/A
5:50 PM43 °FPassing clouds.30 mph66%28.97 "HgN/A
5:20 PM43 °FPassing clouds.32 mph61%28.97 "HgN/A
4:50 PM41 °FScattered clouds.32 mph70%28.97 "HgN/A
4:20 PM41 °FScattered clouds.24 mph70%28.97 "HgN/A
3:50 PM37 °FSprinkles. Broken clouds.25 mph81%28.97 "HgN/A
3:20 PM37 °FRain showers. Partly sunny.24 mph87%28.97 "Hg6 mi
Weather by CustomWeather, © 2015

See weather overviewHow to use our weather pages